Location: *
(45.5667°S, 177.5167°W)
Time: 17:45:25
(UTC+00:00)

Cosmos 2100 Rocket - Pass Details

Date: 29 May 2022
Orbit: 957 x 1000 km, 82.9° (Epoch: 06 July)

Event Time Altitude Azimuth Distance (km) Brightness Sun altitude
Rises 05:26:47 0° 190° (S) 3,730 7.0 -11.8°
Reaches altitude 10° 05:29:20 10° 190° (S) 2,768 6.3 -12.2°
Maximum altitude 05:35:42 84° 276° (W) 994 4.1 -13.3°
Drops below altitude 10° 05:41:55 10° 3° (N) 2,706 6.5 -14.3°
Sets 05:44:23 0° 4° (N) 3,640 7.2 -14.7°
